Regional Weather Roundup
Issued by NWS

Home | Current Version | Previous Version | Text Only | Print | Product List | Glossary On
Versions: 1 2 3 4 5 6 7 8 9 10 11 12 13 14 15 16 17 18 19 20 21 22 23 24 25 26 27 28 29 30 31 32 33 34 35 36 37 38 39 40 41 42 43 44 45 46 47 48 49 50
000
ASUS45 KPSR 231400
RWRAZ

PRELIMINARY ARIZONA REGIONAL HOURLY WEATHER ROUNDUP
NATIONAL WEATHER SERVICE PHOENIX AZ
700 AM MST SAT AUG 23 2014

NOTE: FAIR INDICATES FEW OR NO CLOUDS BELOW 12,000 FEET WITH NO
SIGNIFICANT WEATHER AND/OR OBSTRUCTIONS TO VISIBILITY.

AZZ001>003-036-231500-
NORTHWEST ARIZONA

CITY           SKY/WX    TMP DP  RH WIND       PRES   REMARKS
KINGMAN        SUNNY     64  56  75 SE8       30.02R
$$

AZZ004>008-015-016-018-231500-
NORTH CENTRAL ARIZONA

CITY           SKY/WX    TMP DP  RH WIND       PRES   REMARKS
GRAND CANYON   SUNNY     52  50  93 CALM      30.22R
WILLIAMS       SUNNY     55  48  76 CALM      30.29R
PRESCOTT       SUNNY     59  51  75 S6        30.15R
FLAGSTAFF      SUNNY     51  48  89 CALM      30.25S
PAYSON         SUNNY     57  52  82 CALM      30.19R
PAGE           MOSUNNY   70  50  49 CALM      30.04R
$$

AZZ009>014-017-231500-
NORTHEAST ARIZONA

CITY           SKY/WX    TMP DP  RH WIND       PRES   REMARKS
WINSLOW        NOT AVBL
SAINT JOHNS    SUNNY     58  50  75 S5        30.19R
WINDOW ROCK    SUNNY     55  47  74 CALM      30.23S
SHOW LOW       SUNNY     57  46  67 S7        30.25S
$$

AZZ023-231500-
GREATER PHOENIX AREA

CITY           SKY/WX    TMP DP  RH WIND       PRES   REMARKS
PHOENIX        MOSUNNY   77  61  57 E10       29.92R
GLENDALE       MOSUNNY   75  68  78 N5        29.94
DEER VALLEY    SUNNY     74  64  71 CALM      29.94R
SCOTTSDALE     SUNNY     75  63  66 CALM      29.96R
MESA-FALCON    SUNNY     75  59  57 N7        29.94R
MESA-GATEWAY   MOSUNNY   73  59  60 SE5       29.97R
CHANDLER       MOSUNNY   72  63  73 E6        29.94R
$$

AZZ027-028-231500-
SOUTHWEST MARICOPA COUNTY AND PINAL COUNTY

CITY           SKY/WX    TMP DP  RH WIND       PRES   REMARKS
CASA GRANDE    SUNNY     75  55  50 CALM      29.95S
$$

AZZ503-504-507>509-231500-
SOUTHEAST ARIZONA

CITY           SKY/WX    TMP DP  RH WIND       PRES   REMARKS
TUCSON         SUNNY     73  63  70 SE6       30.04R
RYAN FIELD       N/A     72  68  88 CALM      30.04R
NOGALES        SUNNY     64  61  90 CALM      30.11R
SIERRA VISTA   SUNNY     67  59  75 W3        30.15S
SAFFORD        SUNNY     72  59  63 SE3       30.04S
$$

AZZ020-021-025-026-031-231500-
SOUTHWEST ARIZONA

CITY           SKY/WX    TMP DP  RH WIND       PRES   REMARKS
YUMA           NOT AVBL
$$

CAZ031-033-041-043-047-048-061-231500-
SOUTHERN CALIFORNIA

CITY           SKY/WX    TMP DP  RH WIND       PRES   REMARKS
DOWNTOWN L.A.  CLOUDY    68  60  75 CALM      29.95S
L.A. AIRPORT   PTCLDY    67  60  78 VRB6      29.96R
SAN DIEGO      MOCLDY    67  62  84 NE3       29.97S
BURBANK        CLOUDY    66  59  78 S3        29.97R
ONTARIO        CLEAR     64  61  90 CALM      29.98R FOG
RIVERSIDE      CLEAR     63  59  87 CALM      29.98R
PALM SPRINGS   CLEAR     78  42  27 VRB3      29.87R
EL CENTRO NAS  PTCLDY    79  58  48 SW10      29.83S
IMPERIAL       CLEAR     76  58  53 SW7       29.83S
BLYTHE         SUNNY     79  46  31 S5        29.85R
$$

NVZ020-UTZ003-231500-
SOUTHERN NEVADA-UTAH

CITY           SKY/WX    TMP DP  RH WIND       PRES   REMARKS
LAS VEGAS      NOT AVBL
SALT LAKE CITY PTSUNNY   55  49  80 E7        30.04R
$$

NMZ009-TXZ055-231500-
NEW MEXICO-WEST TEXAS

CITY           SKY/WX    TMP DP  RH WIND       PRES   REMARKS
ALBUQUERQUE    MOSUNNY   62  56  80 CALM      30.19R
EL PASO        MOSUNNY   71  60  68 SW5       30.10R
$$


........................KEY........................
SKY/WX - SKY CONDITION/WEATHER
TMP    - TEMPERATURE IN FAHRENHEIT
DP     - DEW POINT IN FAHRENHEIT
RH     - RELATIVE HUMIDITY IN PERCENT
WIND   - DIRECTION AND SPEED IN MILES PER HOUR (MPH)
VRB    - VARIABLE WIND DIRECTION
PRES   - MEAN SEA LEVEL PRESSURE IN INCHES OF MERCURY
         F - FALLING PRESSURE   R - RISING PRESSURE
         S - STEADY PRESSURE
VSB    - VISIBILITY IN MILES
HX     - HEAT INDEX IN FAHRENHEIT
WCI    - WIND CHILL INDEX IN FAHRENHEIT
TC     - TEMPERATURE IN CELSIUS WHICH IS ALSO KNOWN AS
         TEMPERATURE IN CENTIGRADE
AFB    - AIR FORCE BASE
         LUKE AFB IS LUKE AIR FORCE BASE
         DAVIS-MONTHAN IS DAVIS-MONTHAN AIR FORCE BASE
NAS    - NAVAL AIR STATION
         EL CENTRO NAS IS EL CENTRO NAVAL AIR STATION
N/A    - NOT AVAILABLE


USA.gov is the U.S. government's official web portal to all federal, state and local government web resources and services.